Weather in Bologoe

Russia / Tver Oblast     57°53′08″N   34°03′13″E
temp.,
°C
wind,
m/s
gust,
m/s
humid.,
%
clouds,
%
prec.,
mm/h
press.,
hPa
HPBL,
m
14 may, fri
fri1400:00+10s28866 0.0 1013245
03:00+7sse289812 0.0 1014218
06:00+8s28923 0.0 1014246
09:00+14s46595 0.0 1014967
12:00+17s4651100 0.0 10141685
15:00+19sse3646100 0.0 10131976
18:00+18se475570 0.0 10121542
21:00+12ese24810 0.0 101173
15 may, sat
sat1500:00+10ese268938 0.0 1011116
03:00+10ese2596100 0.0 1010122
06:00+12ese279498 0.0 1009224
09:00+15se3687100 0.9 1007719
12:00+17sse468195 0.3 1007871
15:00+19ssw366723 0.4 1006984
18:00+21s365597 0.0 10041470
21:00+14ssw248795 0.8 100561
16 may, sun
sun1600:00+11s389779 0.0 1005165
03:00+11s389888 0.0 1005208
06:00+11s389799 0.0 1006313
09:00+13ssw4689100 0.1 1007518
12:00+16wsw4575100 0.0 1008915
15:00+18sw456697 0.1 10091153
18:00+18sw2570100 0.4 1009896
21:00+13wsw269698 2.3 1011143
17 may, mon
mon1700:00+12sw239633 0.0 101248
03:00+11ssw22965 0.0 101328
06:00+12sse23940 0.0 101373
09:00+17sse247599 0.0 1014474
12:00+21se3555100 0.0 10131447
15:00+23se4546100 0.0 10111632
18:00+21ese485687 0.0 10101055
21:00+16e51589100 1.1 1008569
18 may, tue
tue1800:00+17ese51593100 0.4 1007526
03:00+16se51495100 0.5 1005527
06:00+16sse3997100 2.2 1005520
09:00+15w3588100 3.3 1007385
12:00+19wsw2361100 0.0 10081244
15:00+17wnw347172 0.0 1009573
18:00+17n2378100 0.1 100878
21:00+14nne2495100 0.8 1008120